| time (UTC) | temp F | wind direction | speed MPH | gust MPH | rain 1hr in | rain 24hr in | rain mn in | humidity % | barometer mb |
| 20260508090041 | 31 | 309 | 0.0 | 0.0 | 0.00 | 0.00 | 0.00 | 90 | 1005.0 |
| 20260508084540 | 31 | 309 | 0.0 | 0.0 | 0.00 | 0.00 | 0.00 | 90 | 1005.0 |
| 20260508083039 | 31 | 309 | 0.0 | 0.0 | 0.00 | 0.00 | 0.00 | 90 | 1005.0 |
| 20260508081538 | 31 | 309 | 0.0 | 0.0 | 0.00 | 0.00 | 0.00 | 90 | 1005.1 |
| 20260508080045 | 31 | 309 | 0.0 | 0.0 | 0.00 | 0.00 | 0.00 | 90 | 1004.9 |
| 20260508074537 | 31 | 309 | 0.0 | 0.0 | 0.00 | 0.01 | 0.00 | 89 | 1004.8 |
| 20260508073035 | 32 | 309 | 0.0 | 0.0 | 0.00 | 0.01 | 0.00 | 89 | 1004.6 |
| 20260508071534 | 32 | 309 | 0.0 | 0.0 | 0.00 | 0.01 | 0.00 | 89 | 1004.7 |
| 20260508070031 | 32 | 309 | 0.0 | 0.0 | 0.00 | 0.01 | 0.00 | 88 | 1004.7 |
| 20260508064530 | 32 | 309 | 0.0 | 1.0 | 0.00 | 0.05 | 0.00 | 88 | 1004.7 |
| 20260508063029 | 33 | 309 | 0.0 | 0.0 | 0.00 | 0.05 | 0.00 | 87 | 1004.7 |
| 20260508061528 | 33 | 309 | 0.0 | 0.0 | 0.00 | 0.05 | 0.00 | 86 | 1004.8 |
| 20260508060027 | 34 | 309 | 0.0 | 0.0 | 0.00 | 0.05 | 0.00 | 86 | 1004.9 |
| 20260508054522 | 34 | 309 | 0.0 | 0.0 | 0.00 | 0.17 | 0.00 | 85 | 1005.0 |
| 20260508053020 | 35 | 309 | 0.0 | 0.0 | 0.00 | 0.17 | 0.00 | 83 | 1005.0 |
| 20260508051525 | 36 | 309 | 0.0 | 0.0 | 0.00 | 0.17 | 0.00 | 79 | 1005.0 |
| 20260508050015 | 37 | 334 | 0.0 | 7.0 | 0.00 | 0.17 | 0.00 | 78 | 1005.1 |
| 20260508044513 | 36 | 342 | 2.0 | 7.0 | 0.00 | 0.17 | 0.00 | 83 | 1005.3 |
| 20260508043014 | 36 | 319 | 2.0 | 4.0 | 0.00 | 0.17 | 0.00 | 84 | 1005.3 |
| 20260508041506 | 36 | 318 | 0.0 | 0.0 | 0.00 | 0.17 | 0.00 | 83 | 1005.4 |
| 20260508040011 | 37 | 318 | 0.0 | 0.0 | 0.00 | 0.19 | 0.17 | 81 | 1005.5 |
| 20260508034600 | 39 | 318 | 0.0 | 3.0 | 0.00 | 0.19 | 0.17 | 76 | 1005.6 |
| 20260508033059 | 40 | 318 | 2.0 | 7.0 | 0.00 | 0.19 | 0.17 | 71 | 1005.6 |
| 20260508031555 | 40 | 316 | 1.0 | 5.0 | 0.00 | 0.19 | 0.17 | 71 | 1005.4 |
| 20260508030100 | 42 | 5 | 1.0 | 5.0 | 0.00 | 0.19 | 0.17 | 67 | 1005.3 |
| 20260508024550 | 43 | 5 | 2.0 | 7.0 | 0.00 | 0.27 | 0.17 | 68 | 1005.0 |
| 20260508023045 | 44 | 325 | 2.0 | 6.0 | 0.00 | 0.27 | 0.17 | 62 | 1004.8 |
| 20260508021543 | 46 | 335 | 3.0 | 7.0 | 0.00 | 0.27 | 0.17 | 59 | 1005.0 |
| 20260508020046 | 47 | 333 | 3.0 | 7.0 | 0.00 | 0.27 | 0.17 | 54 | 1005.0 |
| 20260508014542 | 48 | 327 | 4.0 | 8.0 | 0.00 | 0.44 | 0.17 | 52 | 1005.1 |
| 20260508013040 | 49 | 346 | 5.0 | 12.0 | 0.00 | 0.44 | 0.17 | 51 | 1005.1 |
| 20260508011543 | 49 | 339 | 3.0 | 12.0 | 0.00 | 0.44 | 0.17 | 51 | 1005.0 |
| 20260508010037 | 50 | 338 | 7.0 | 14.0 | 0.00 | 0.44 | 0.17 | 51 | 1004.8 |
| 20260508004536 | 50 | 312 | 6.0 | 14.0 | 0.00 | 0.57 | 0.17 | 53 | 1004.8 |
| 20260508003038 | 50 | 9 | 5.0 | 15.0 | 0.00 | 0.57 | 0.17 | 56 | 1004.4 |
| 20260508001536 | 48 | 333 | 5.0 | 10.0 | 0.00 | 0.57 | 0.17 | 77 | 1004.3 |
| 20260508000032 | 47 | 239 | 0.0 | 2.0 | 0.00 | 0.57 | 0.17 | 83 | 1003.9 |
| 20260507234532 | 49 | 220 | 0.0 | 0.0 | 0.00 | 0.71 | 0.17 | 80 | 1003.4 |
| 20260507233034 | 50 | 220 | 0.0 | 0.0 | 0.00 | 0.71 | 0.17 | 77 | 1003.2 |
| 20260507231538 | 51 | 220 | 0.0 | 2.0 | 0.00 | 0.71 | 0.17 | 77 | 1002.9 |
| 20260507230030 | 51 | 222 | 0.0 | 5.0 | 0.00 | 0.71 | 0.17 | 77 | 1002.8 |
| 20260507224530 | 51 | 134 | 0.0 | 5.0 | 0.00 | 0.77 | 0.17 | 77 | 1002.5 |
| 20260507223030 | 52 | 157 | 1.0 | 5.0 | 0.00 | 0.77 | 0.17 | 75 | 1002.3 |
| 20260507221531 | 53 | 182 | 0.0 | 2.0 | 0.00 | 0.77 | 0.17 | 72 | 1002.3 |
| 20260507220028 | 55 | 148 | 0.0 | 7.0 | 0.00 | 0.77 | 0.17 | 68 | 1002.5 |
| 20260507214529 | 56 | 199 | 2.0 | 8.0 | 0.00 | 0.80 | 0.17 | 67 | 1002.5 |
| 20260507213029 | 55 | 225 | 2.0 | 9.0 | 0.00 | 0.80 | 0.17 | 67 | 1002.5 |
| 20260507211526 | 56 | 212 | 1.0 | 8.0 | 0.00 | 0.80 | 0.17 | 65 | 1002.5 |
| 20260507210025 | 56 | 230 | 5.0 | 13.0 | 0.00 | 0.80 | 0.17 | 66 | 1002.4 |
| 20260507204525 | 56 | 224 | 0.0 | 10.0 | 0.00 | 0.80 | 0.17 | 67 | 1002.3 |
| 20260507203026 | 57 | 174 | 2.0 | 10.0 | 0.00 | 0.80 | 0.17 | 67 | 1002.2 |
| 20260507201524 | 57 | 252 | 4.0 | 12.0 | 0.00 | 0.80 | 0.17 | 63 | 1002.1 |
| 20260507200029 | 59 | 234 | 3.0 | 11.0 | 0.00 | 0.80 | 0.17 | 62 | 1002.2 |
| 20260507194523 | 58 | 300 | 3.0 | 12.0 | 0.00 | 0.80 | 0.17 | 66 | 1002.2 |
| 20260507193023 | 58 | 205 | 4.0 | 9.0 | 0.00 | 0.80 | 0.17 | 66 | 1002.2 |
| 20260507191521 | 57 | 205 | 1.0 | 9.0 | 0.00 | 0.80 | 0.17 | 66 | 1002.2 |
| 20260507190020 | 56 | 173 | 2.0 | 13.0 | 0.00 | 0.80 | 0.17 | 72 | 1002.3 |
| 20260507184519 | 56 | 129 | 2.0 | 10.0 | 0.00 | 0.80 | 0.17 | 74 | 1002.4 |
| 20260507183033 | 56 | 168 | 4.0 | 12.0 | 0.00 | 0.80 | 0.17 | 72 | 1002.5 |
| 20260507181517 | 57 | 154 | 6.0 | 13.0 | 0.00 | 0.80 | 0.17 | 69 | 1002.6 |
| 20260507180031 | 58 | 148 | 4.0 | 12.0 | 0.00 | 0.80 | 0.17 | 70 | 1002.7 |
| 20260507174518 | 58 | 191 | 1.0 | 14.0 | 0.00 | 0.80 | 0.17 | 68 | 1002.9 |
| 20260507173015 | 57 | 166 | 1.0 | 10.0 | 0.00 | 0.80 | 0.17 | 70 | 1002.7 |
| 20260507171513 | 59 | 200 | 3.0 | 9.0 | 0.00 | 0.80 | 0.17 | 63 | 1002.7 |
| 20260507170016 | 61 | 171 | 4.0 | 10.0 | 0.00 | 0.80 | 0.17 | 60 | 1002.8 |
| 20260507164513 | 60 | 194 | 3.0 | 8.0 | 0.00 | 0.80 | 0.17 | 60 | 1003.1 |
| 20260507163011 | 61 | 234 | 5.0 | 9.0 | 0.00 | 0.80 | 0.17 | 55 | 1003.0 |
| 20260507161508 | 59 | 240 | 0.0 | 6.0 | 0.00 | 0.80 | 0.17 | 56 | 1003.2 |
| 20260507160005 | 59 | 30 | 2.0 | 9.0 | 0.00 | 0.80 | 0.17 | 55 | 1003.4 |
| 20260507154503 | 58 | 322 | 7.0 | 12.0 | 0.00 | 0.80 | 0.17 | 56 | 1003.8 |
| 20260507153002 | 58 | 299 | 4.0 | 9.0 | 0.00 | 0.80 | 0.17 | 57 | 1003.9 |
| 20260507151558 | 57 | 326 | 5.0 | 10.0 | 0.00 | 0.80 | 0.17 | 57 | 1004.0 |
| 20260507144552 | 56 | 355 | 4.0 | 10.0 | 0.00 | 0.80 | 0.17 | 65 | 1004.3 |
| 20260507143055 | 55 | 327 | 1.0 | 7.0 | 0.00 | 0.80 | 0.17 | 64 | 1004.4 |
| 20260507141552 | 55 | 5 | 3.0 | 8.0 | 0.00 | 0.80 | 0.17 | 68 | 1004.5 |
| 20260507140042 | 54 | 306 | 2.0 | 7.0 | 0.00 | 0.80 | 0.17 | 68 | 1004.7 |
| 20260507134547 | 54 | 333 | 3.0 | 9.0 | 0.00 | 0.80 | 0.17 | 72 | 1004.8 |
| 20260507133035 | 52 | 28 | 4.0 | 10.0 | 0.00 | 0.80 | 0.17 | 73 | 1005.2 |
| 20260507131536 | 52 | 17 | 5.0 | 13.0 | 0.00 | 0.80 | 0.17 | 78 | 1004.9 |
| 20260507130032 | 51 | 294 | 5.0 | 11.0 | 0.00 | 0.80 | 0.17 | 78 | 1004.9 |
| 20260507124527 | 50 | 14 | 4.0 | 11.0 | 0.00 | 0.80 | 0.17 | 81 | 1004.7 |
| 20260507123023 | 49 | 11 | 2.0 | 7.0 | 0.00 | 0.80 | 0.17 | 85 | 1004.7 |
| 20260507121521 | 48 | 12 | 2.0 | 8.0 | 0.00 | 0.80 | 0.17 | 86 | 1004.7 |
| 20260507120019 | 47 | 346 | 2.0 | 5.0 | 0.00 | 0.80 | 0.17 | 89 | 1005.0 |
| 20260507114525 | 46 | 336 | 1.0 | 6.0 | 0.00 | 0.80 | 0.17 | 90 | 1005.2 |
| 20260507113014 | 46 | 322 | 0.0 | 0.0 | 0.00 | 0.80 | 0.17 | 91 | 1006.2 |
| 20260507111519 | 45 | 322 | 0.0 | 5.0 | 0.00 | 0.80 | 0.17 | 91 | 1006.1 |
| 20260507110010 | 45 | 321 | 1.0 | 6.0 | 0.00 | 0.80 | 0.17 | 92 | 1005.6 |
| 20260507104508 | 45 | 355 | 3.0 | 6.0 | 0.00 | 0.80 | 0.17 | 92 | 1005.4 |
| 20260507103004 | 45 | 313 | 1.0 | 4.0 | 0.00 | 0.80 | 0.17 | 93 | 1005.0 |
| 20260507101507 | 46 | 314 | 0.0 | 6.0 | 0.00 | 0.80 | 0.17 | 93 | 1004.4 |
| 20260507100001 | 45 | 309 | 0.0 | 4.0 | 0.00 | 0.80 | 0.17 | 93 | 1004.6 |
| 20260507094619 | 45 | 302 | 2.0 | 6.0 | 0.00 | 0.80 | 0.17 | 93 | 1004.3 |
| 20260507093101 | 45 | 346 | 3.0 | 6.0 | 0.00 | 0.80 | 0.17 | 93 | 1004.5 |
| 20260507091635 | 45 | 317 | 2.0 | 5.0 | 0.00 | 0.80 | 0.17 | 93 | 1004.9 |